Preview of NWS' New Version of Forecast
This preview is not operational and should not be used for support decisions.

Regional Weather Roundup (RWR)

Issued by National Weather Service (NWS)

                            
000
ASUS45 KBOI 211410
RWRID 

IDAHO REGIONAL WEATHER ROUNDUP
NATIONAL WEATHER SERVICE BOISE ID
800 AM MDT SAT SEP 21 2019

NOTE: "FAIR" INDICATES FEW OR NO CLOUDS BELOW 12000 FEET
WITH NO SIGNIFICANT WEATHER AND/OR OBSTRUCTIONS TO VISIBILITY

IDZ012-014-211500-
SOUTHWEST IDAHO

  
CITY           SKY/WX    TMP DP  RH WIND       PRES   REMARKS
BOISE          CLEAR     45  40  82 CALM      30.15R                  
CALDWELL       CLEAR     45  43  93 CALM      30.15R                  
$$

IDZ016-017-211500-
SOUTHCENTRAL IDAHO

  
CITY           SKY/WX    TMP DP  RH WIND       PRES   REMARKS
BURLEY         PTCLDY    42  36  79 SW8       30.15R                  
JEROME         CLEAR     42  38  85 S6        30.16R                  
TWIN FALLS     CLEAR     45  38  76 SW10      30.17R                  
$$

IDZ019>023-211500-
SOUTHEAST IDAHO

  
CITY           SKY/WX    TMP DP  RH WIND       PRES   REMARKS
IDAHO FALLS    CLOUDY    44  41  89 SW9       30.16R                  
POCATELLO      CLOUDY    47  40  76 SW12      30.17R                  
REXBURG        CLOUDY    44  41  89 SW9       30.14R                  
$$

IDZ006-010-011-018-031-032-211500-
CENTRAL IDAHO MOUNTAINS

  
CITY           SKY/WX    TMP DP  RH WIND       PRES   REMARKS
MCCALL         CLOUDY    37  34  89 SW3       30.16R                  
HAILEY         PTCLDY    37  36  93 W9        30.17S WCI  31          
STANLEY          N/A     35  31  85 CALM      30.20R                  
SALMON         CLOUDY    46  45  96 CALM      30.14R                  
CHALLIS        CLOUDY    44  39  82 CALM      30.15R                  
$$

IDZ002-004-006-007-026-211500-
NORTHERN IDAHO

  
CITY           SKY/WX    TMP DP  RH WIND       PRES   REMARKS
LEWISTON       MOCLDY    55  51  86 E8        30.10R                  
LOWELL           N/A     54  52  93 N3        30.14R                  
COEUR D'ALENE  FOG       39  39 100 W6        30.11R VSB 1/4 WCI  35  
MULLAN PASS    FOG       40  39  97 VRB6      30.12R VSB 1/4          
$$